www.pogodaiklimat.ru

Погода и климат >> Архив погоды >> Канада >> Wainwright Cfb Airf


ПОГОДА в Wainwright Cfb Airf

  • Прогноз погоды в Wainwright Cfb Airf
  • Монитор погоды в Wainwright Cfb Airf
  • Климат города

АРХИВ ПОГОДЫ в Wainwright Cfb Airf

Время (UTC), дата Ветер
(напр.,м/с)
 
Видим.   Явления Облачность Т
(С)
Тd
(С)
f
(%)
Тe
(С)
Тes
(С)
Комфортность P
(гПа)
Po
(гПа)
Тmin
(С)
Tmax
(С)
R
(мм)
R24
(мм)
S
(см)
06 9.12 ЮЗ 4 н/о н/о -12.6 -16.3 74 -20 -20 1026.2 940.4 -18.8 -5.1
09 9.12 ЮЗ 4 н/о н/о -15.3 -17.9 80 -23 -23 1025.8 940.2
12 9.12 ЮЗ 3 н/о н/о -19.1 -21.6 81 -27 -27 1026.0 939.8 -19.3 -5.1
15 9.12 ЮЗ 2 н/о н/о -17.1 -19.7 80 -23 -23 1024.7 938.7
18 9.12 ЮЗ 2 н/о н/о -13.0 -19.0 61 -17 -17 1023.4 937.6 -19.3 -11.8
21 9.12 ЮЗ 3 н/о н/о -7.6 -16.3 50 -13 -13 1021.5 936.1
00 10.12 Ю 2 н/о н/о -9.7 -14.7 67 -14 -14 1020.7 934.9 -19.3 -7.0
03 10.12 Ю 2 н/о н/о -10.6 -14.8 71 -15 -15 1018.7 933.1
06 10.12 ЮВ 1 н/о н/о -9.9 -13.7 74 -12 -12 1016.1 931.2 -19.3 -7.0
09 10.12 В 2 н/о н/о -9.9 -13.4 76 -14 -14 1013.9 929.6
12 10.12 В 1 н/о н/о -12.2 -14.3 84 -14 -14 1013.1 928.5 -12.5 -7.0
15 10.12 Ю 2 н/о н/о -13.3 -14.9 88 -18 -18 1012.5 927.8
18 10.12 ЮЗ 4 н/о н/о -14.2 -16.6 82 -22 -22 1013.6 928.8 -16.5 -9.2
21 10.12 СЗ 3 н/о н/о -4.0 -10.1 62 -8 -8 1012.6 928.7
00 11.12 СЗ 5 н/о н/о +0.6 -1.5 86 -5 -5 1014.2 930.4 -16.5 +0.8
03 11.12 ЮЗ 4 н/о н/о -1.2 -2.4 92 -7 -7 1014.5 930.4
06 11.12 ЮЗ 5 н/о н/о -1.7 -2.7 93 -8 -8 1014.9 930.6 -16.5 +0.8
09 11.12 ЮЗ 4 н/о н/о -3.4 -4.3 93 -9 -9 1013.3 929.9
12 11.12 Ю 3 н/о н/о -7.7 -9.1 90 -13 -13 1011.3 928.1 -8.5 +0.8
15 11.12 Ю 2 н/о н/о -9.7 -11.4 87 -14 -14 1008.7 925.4
18 11.12 Ю 3 н/о н/о -8.6 -10.2 88 -14 -14 1004.8 921.8 -14.2 -1.6
21 11.12 Ю 4 н/о н/о -5.3 -8.6 78 -11 -11 999.8 917.4
00 12.12 Ю 4 н/о н/о -5.5 -8.7 78 -12 -12 996.2 913.7 -11.5 -4.6
03 12.12 Ю 3 н/о н/о -5.3 -7.7 83 -11 -11 993.3 910.9
06 12.12 ЮЗ 2 н/о н/о -4.8 -6.8 86 -8 -8 992.1 909.9 -11.5 -1.6
09 12.12 З 2 н/о н/о -6.0 -7.5 89 -10 -10 992.2 910.2
12 12.12 Ю 3 н/о н/о -2.5 -5.2 82 -7 -7 995.2 913.2 -8.0 -1.6
15 12.12 ЮЗ 3 н/о н/о -2.0 -5.0 80 -7 -7 998.6 916.4
18 12.12 З 6 н/о н/о -0.1 -7.5 57 -6 -6 1001.7 919.4 -8.8 +0.7
21 12.12 З 7 н/о н/о +2.0 -7.7 49 -4 -4 1003.9 921.5
00 13.12 З 5 н/о н/о -2.4 -9.7 57 -8 -8 1007.5 924.7 -6.9 +2.2
03 13.12 З 6 н/о н/о -2.9 -11.9 50 -9 -9 1008.9 926.0
06 13.12 Ю 3 н/о н/о -6.3 -13.6 56 -11 -11 1008.8 925.8 -7.3 +2.2 22
09 13.12 Ю 3 н/о н/о -6.8 -13.6 58 -12 -12 1006.9 924.2
12 13.12 ЮЗ 5 н/о н/о -3.4 -10.5 58 -10 -10 1004.1 921.5 -8.4 +2.2
15 13.12 ЮЗ 5 н/о н/о -1.1 -8.2 58 -7 -7 1002.4 920.1
18 13.12 З 5 н/о н/о +0.6 -7.8 53 -5 -5 1004.1 921.6 -8.4 +0.9
21 13.12 ЮЗ 3 н/о н/о +1.4 -7.6 51 -2 -2 1006.0 923.3
00 14.12 ЮЗ 4 н/о {осадки} н/о -2.2 -7.7 66 -7 -7 1008.5 925.6 -8.4 +1.7 0.2
03 14.12 ЮЗ 4 н/о н/о -4.6 -8.8 72 -11 -11 1010.1 927.1
06 14.12 ЮЗ 1 н/о н/о -7.1 -10.2 78 -9 -9 1010.3 927.2 -8.4 +1.7 19
09 14.12 Ю 4 н/о н/о -4.7 -10.4 64 -10 -10 1009.3 926.5 0.2
12 14.12 Ю 3 н/о н/о -5.5 -8.6 79 -11 -11 1007.4 924.4 -8.7 +1.7 0.2
15 14.12 Ю 3 н/о н/о -4.3 -7.6 78 -9 -9 1005.0 922.1
18 14.12 Ю 5 н/о н/о +3.9 -3.2 60 -1 -1 1003.0 920.7 -8.7 +4.0
21 14.12 ЮЗ 5 н/о н/о +4.9 -2.9 57 +1 +1 1000.9 919.1
00 15.12 Ю 6 н/о н/о +4.7 -4.1 53 0 0 999.7 917.9 -8.7 +5.0
03 15.12 Ю 4 н/о н/о +4.1 -5.0 51 0 0 996.8 915.3
06 15.12 Ю 8 н/о н/о +4.5 -4.5 52 -1 -1 992.7 912.2 -8.7 +5.0 6
09 15.12 ЮЗ 8 н/о н/о +4.2 -2.4 62 -1 -1 991.2 910.9
12 15.12 ЮЗ 3 н/о н/о +2.8 -2.9 66 -1 -1 992.7 912.1 +2.7 +5.0
15 15.12 ЮЗ 2 н/о н/о +2.8 -3.2 65 0 0 997.2 916.2
18 15.12 СЗ 7 н/о н/о +1.6 -6.0 57 -4 -4 1004.9 923.2 -0.1 +4.7
21 15.12 СЗ 8 н/о н/о +0.1 -8.9 51 -7 -7 1009.6 927.4
00 16.12 СЗ 9 н/о н/о -2.5 -10.1 56 -10 -10 1014.8 931.9 -2.5 +4.2

 

Местоположение метеостанции Wainwright Cfb Airf (Канада): широта 52.82 долгота -111.10 высота над уровнем моря 686 м.

В архиве по умолчанию представлена погода в Wainwright Cfb Airf за последнюю неделю. Архивные данные за месяц целиком и за предыдущие месяцы, начиная с января 2011 года, Вы можете получить, выбрав интересующий диапазон дат из раскрывающегося списка и нажав кнопку "Ввод!".


*Определитесь, кто Вы:
робот инопланетянин человек

Внимание! Время в таблицах - всемирное. Для получения местного времени необходимо прибавить поправку, которая в Wainwright Cfb Airf равна -7 ч.

Смотрите также архив погоды в соседних городах и на ближайших метеорологических станциях:

Погода в Albert Hall Agcm (Канада) (31 км)
Погода в Hughenden Agcm (Канада) (35 км)
Погода в Bellshill Agcm (Канада) (36 км)
Погода в Gilt Edge North Agcm (Канада) (43 км)
Погода в Edgerton Agcm (Канада) (46 км)
Погода в Killam Agdm (Канада) (47 км)
Погода в Ribstone South Agcm (Канада) (58 км)
Погода в Kessler Agcm (Канада) (60 км)
Погода в Vermilion Agdm (Канада) (60 км)
Погода в Cadogan Agcm (Канада) (68 км)

Пояснения к столбцам:

Ветер - указаны скорость ветра в м/с - средняя за 10 мин, порывы в срок и между сроками (в фигурных скобках) и направление, откуда дует ветер: С - северный, СВ - северо-восточный, В - восточный, ЮВ - юго-восточный, Ю - южный, ЮЗ - юго-западный, З - западный, СЗ - северо-западный.
Видимость - горизонтальная дальность видимости в метрах или километрах. При видимости от 1 до 10 км при отсутствии осадков обычно наблюдается дымка, при ухудшении видимости до 1 км и менее - туман. В сухую погоду видимость может ухудшаться дымом, пылью или мглою.
Явления - указаны атмосферные явления, наблюдавшиеся в срок или в последний час перед сроком; фигурными скобками обозначены явления, наблюдавшиеся между сроками (за 1-3 часа до срока); квадратными скобками обозначены град или гололедные отложения с указанием их диаметра в мм.
Облачность - указаны через наклонную черту общая и нижняя облачность в баллах и высота нижней границы облаков в метрах; квадратными скобками обозначены формы облаков: Ci - перистые, Cs - перисто-слоистые, Cc - перисто-кучевые, Ac - высококучевые, As - высокослоистые, Sc - слоисто-кучевые, Ns - слоисто-дождевые, Cu - кучевые, Cb - кучево-дождевые. Подробнее классификацию облаков см. в Атласе облаков (PDF).
T - Температура воздуха - температура, измеренная на высоте 2 м над землей.
Td - Температура точки росы - температура, при понижении до которой содержащийся в воздухе водяной пар достигнет насыщения.
f - Относительная влажность воздуха - влажноcть воздуха, измеренная на высоте 2 м над землей.
Te - Эффективная температура - температура, которую ощущает одетый по сезону человек в тени. Характеристика душности погоды. При расчете учитывается влияние влажности воздуха и скорости ветра на теплоощущения человека.
Tes - Эффективная температура на солнце - температура, которую ощущает человек, с поправкой на солнечный нагрев. Характеристика знойности погоды. Зависит от высоты солнца над горизонтом, облачности и скорости ветра. Ночью, в пасмурную погоду, а также при ветре 12 м/с и более поправка равна нулю.
P - Атмосферное давление - приведенное к уровню моря атмосферное давление.
Po - Атмосферное давление - измеренное на уровне метеостанции атмосферное давление.
Tmin - Минимальная температура - минимум температуры воздуха на высоте 2 м над землей.
Tmax - Максимальная температура - максимум температуры воздуха на высоте 2 м над землей.
R - Количество осадков - Количество выпавших осадков за период времени, мм. При наведении курсора мыши на число - период времени, за который выпало указанное количество осадков.
R24 - Количество осадков - Количество выпавших осадков за 24 часа, мм.
S - Снежный покров - Высота снежного покрова, см. При наведении курсора мыши на число - состояние снежного покрова и степень покрытия местности в баллах.